This demonstration page uses our WeatherBlox Daily Observations layout. Learn more.

Left ArrowRight Arrow

44.8408, -93.29828

Hourly Observations for April 15, 2017

Temp ( °F °C ) Dew Point ( °F °C ) Humidity (%) Winds ( mph kmh ) Pressure ( in mb ) Visibility ( mi km ) Precip ( " mm )
12:04 am 00:04 Cloudy with Light Rain 58 14.4 55 12.8 90 90 SE 9 15 29.83 1010 2 3 0.01 0.25
12:27 am 00:27 Cloudy with Rain 58 14.4 55 12.8 90 90 SE 10 17 29.83 1010 2 3 0.16 4.06
12:53 am 00:53 Cloudy with Light Rain 58 14.4 55 12.8 90 90 SE 9 15 29.81 1010 4 6 0.20 5.08
1:12 am 01:12 Cloudy with Light Rain 57 14 55 13 94 94 SE 8 13 29.83 1010 4 6 0.00 0.00
1:44 am 01:44 Cloudy with Light Rain 57 14 55 13 94 94 SE 8 13 29.80 1009 3 5 0.00 0.00
1:53 am 01:53 Cloudy with Mist and Fog 58 14.4 55 12.8 90 90 SE 8 13 29.79 1009 3 5 0.04 1.02
2:17 am 02:17 Cloudy with Mist and Fog 58 14.4 55 12.8 90 90 ESE 8 13 29.80 1009 3 5 0.01 0.25
2:24 am 02:24 Cloudy with Nearby Thunderstorms 58 14.4 55 12.8 90 90 ESE 8 13 29.77 1008 3 5 0.01 0.25
2:38 am 02:38 Cloudy with Thunderstorms 57 14 55 13 94 94 ESE 7 11 29.80 1009 4 6 0.00 0.00
2:47 am 02:47 Cloudy with Strong Thunderstorms 57 14 55 13 94 94 ESE 10 17 29.80 1009 2 3 0.09 2.29
2:53 am 02:53 Cloudy with Strong Thunderstorms 58 14.4 55 12.8 90 90 ESE 13 20 29.78 1008 2 3 0.28 7.11
2:58 am 02:58 Cloudy with Thunderstorms 57 14 55 13 94 94 ESE 13 20 29.77 1008 4 6 0.00 0.00
3:53 am 03:53 Cloudy with Thunderstorms 58 14.4 56 13.3 93 93 ESE 9 15 29.76 1008 4 6 0.06 1.52
4:16 am 04:16 Cloudy with Light Rain 59 15 56 13.3 90 90 SE 12 19 29.74 1007 6 10 0.00 0.03
4:37 am 04:37 Cloudy with Thunderstorms 59 15 56 13.3 90 90 SE 9 15 29.77 1008 6 10 0.01 0.25
4:53 am 04:53 Cloudy with Thunderstorms 59 15 56 13.3 90 90 SE 10 17 29.76 1008 6 10 0.01 0.25
5:39 am 05:39 Cloudy with Light Rain 59 15 56 13.3 90 90 SSE 5 7 29.77 1008 6 10 0.04 1.02
5:53 am 05:53 Cloudy with Mist and Fog 59 15 56 13.3 90 90 S 5 7 29.76 1008 6 10 0.05 1.27
6:53 am 06:53 Cloudy with Thunderstorms 61 16.1 57 13.9 87 87 WNW 5 7 29.74 1007 6 10 0.04 1.02
7:27 am 07:27 Cloudy 61 16 57 14 88 88 SW 8 13 29.77 1008 7 11 0.00 0.00
7:53 am 07:53 Cloudy with Light Rain 62 16.7 57 13.9 84 84 W 13 20 29.75 1008 3 5 0.02 0.51
8:53 am 08:53 Cloudy with Heavy Rain 60 15.6 57 13.9 90 90 WSW 8 13 29.78 1009 3 4 0.10 2.54
9:00 am 09:00 Cloudy with Rain 61 16 57 14 88 88 WSW 7 11 29.77 1008 2 3 0.00 0.00
9:08 am 09:08 Cloudy with Rain 60 15.6 57 13.9 90 90 SW 8 13 29.77 1008 2 3 0.07 1.78
9:53 am 09:53 Cloudy with Light Rain 60 15.6 57 13.9 90 90 SW 5 7 29.77 1008 4 6 0.20 5.08
10:28 am 10:28 Cloudy with Mist and Fog 61 16 57 14 88 88 S 7 11 29.77 1008 6 10 0.00 0.00
10:53 am 10:53 Mostly Cloudy 61 16.1 58 14.4 90 90 SE 16 26 29.67 1005 9 14 0.01 0.25
11:36 am 11:36 Mostly Cloudy 63 17 57 14 83 83 N 10 17 29.77 1008 10 16 0.00 0.00
11:53 am 11:53 Mostly Cloudy 65 18.3 58 14.4 78 78 N 10 17 29.76 1008 10 16 0.00 0.00
12:12 pm 12:12 Mostly Cloudy 64 18 57 14 78 78 N 7 11 29.77 1008 10 16 0.00 0.00
12:21 pm 12:21 Mostly Cloudy 65 18.3 57 13.9 76 76 N 6 9 29.77 1008 10 16 0.00 0.00
12:45 pm 12:45 Cloudy 65 18.3 56 13.3 73 73 NNW 6 9 29.80 1009 10 16 0.00 0.00
12:53 pm 12:53 Cloudy 66 18.9 57 13.9 73 73 WNW 6 9 29.78 1009 10 16 0.00 0.00
1:05 pm 13:05 Mostly Cloudy 67 19.4 57 13.9 71 71 NW 7 11 29.77 1008 10 16 0.00 0.00
1:16 pm 13:16 Mostly Cloudy 66 18.9 56 13.3 70 70 NNW 3 6 29.80 1009 10 16 0.00 0.00
1:24 pm 13:24 Mostly Cloudy 66 19 57 14 73 73 N 5 7 29.77 1008 10 16 0.00 0.00
1:53 pm 13:53 Mostly Cloudy 68 20 56 13.3 65 65 Calm 29.78 1008 10 16 0.00 0.00
2:53 pm 14:53 Cloudy 69 20.6 55 12.8 61 61 Calm 29.78 1008 10 16 0.00 0.00
3:53 pm 15:53 Mostly Cloudy 70 21.1 54 12.2 57 57 WSW 6 9 29.76 1008 10 16 0.00 0.00
4:53 pm 16:53 Mostly Cloudy 71 21.7 55 12.8 57 57 Calm 29.75 1008 10 16 0.00 0.00
5:53 pm 17:53 Mostly Cloudy 70 21.1 57 13.9 64 64 N 8 13 29.75 1007 10 16 0.00 0.00
6:34 pm 18:34 Cloudy with Nearby Thunderstorms 68 20 55 13 64 64 N 13 20 29.77 1008 10 16 0.00 0.00
6:46 pm 18:46 Cloudy with Thunderstorms 66 19 57 14 73 73 N 12 19 29.77 1008 10 16 0.00 0.00
6:53 pm 18:53 Cloudy with Thunderstorms 65 18.3 58 14.4 78 78 N 12 19 29.76 1008 4 6 0.01 0.25
7:49 pm 19:49 Mostly Cloudy with Nearby Thunderstorms 57 14 52 11 82 82 N 17 28 29.80 1009 10 16 0.17 4.32
7:53 pm 19:53 Mostly Cloudy 57 13.9 51 10.6 81 81 N 17 28 29.79 1009 10 16 0.17 4.32
8:53 pm 20:53 Mostly Cloudy 57 13.9 49 9.4 74 74 N 12 19 29.81 1009 10 16 0.00 0.00
9:53 pm 21:53 Mostly Cloudy 55 12.8 49 9.4 80 80 N 12 19 29.81 1010 10 16 0.01 0.25
10:53 pm 22:53 Partly Cloudy 54 12.2 50 10 87 87 WNW 12 19 29.85 1011 10 16 0.00 0.00
11:53 pm 23:53 Mostly Cloudy 53 11.7 49 9.4 86 86 WNW 12 19 29.85 1011 10 16 0.00 0.00

Powered by AerisWeather